Preview of NWS' New Version of Forecast
This preview is not operational and should not be used for support decisions.

Regional Weather Roundup (RWR)

Issued by National Weather Service (NWS)

                            
000
ASUS46 KSEW 241410
RWRWA 

WASHINGTON REGIONAL WEATHER ROUNDUP
NATIONAL WEATHER SERVICE SEATTLE WA
700 AM PDT MON JUN 24 2019

NOTE:"FAIR" INDICATES FEW OR NO CLOUDS BELOW 12,000 FEET WITH NO 
SIGNIFICANT WEATHER AND/OR OBSTRUCTIONS TO VISIBILITY.

WAZ507-509-555>559-241500-
SEATTLE, TACOMA, EVERETT, AND VICINITY
  
CITY           SKY/WX    TMP DP  RH WIND       PRES   REMARKS
EVERETT        CLOUDY    52  49  89 CALM      30.09F                  
BOEING FIELD   CLOUDY    55  48  77 SE5       30.09F                  
RENTON         CLOUDY    55  50  83 S3        30.09S                  
SEATAC AIRPORT CLOUDY    55  48  77 SE7       30.09S                  
JBLM-MCCHORD   CLOUDY    52  52  99 S5        30.09F                  
PUYALLUP       CLOUDY    54  50  87 CALM      30.10R                  
BREMERTON      CLOUDY    52  48  86 CALM      30.09F                  
JBLM-FT LEWIS  CLOUDY    52  52  99 CALM      30.09S                  
TACOMA NARROWS CLOUDY    52  48  86 CALM      30.09F                  
$$
 
WAZ001-503-506-510-514-515-241500-
NORTH INTERIOR
  
CITY           SKY/WX    TMP DP  RH WIND       PRES   REMARKS
BELLINGHAM     CLOUDY    55  48  77 S7        30.06F                  
FRIDAY HARBOR  MOSUNNY   52  47  83 CALM      30.07F                  
EASTSOUND      CLOUDY    54  50  87 S7        30.05S                  
PORT ANGELES   SUNNY     52  45  77 W6        30.09F                  
EDIZ HOOK      FAIR      53  49  86 W10G17    30.09F                  
PORT TOWNSEND  CLOUDY    52  50  93 CALM      30.08F                  
NAS WHIDBEY    PTSUNNY   57  49  74 SW10      30.12F                  
ARLINGTON      CLOUDY    54  49  83 N3        30.10S                  
BURLINGTON     CLOUDY    54  48  82 S6        30.08F                  
$$
 
WAZ020-022-039-040-504-511-512-241500-
SOUTHWEST INTERIOR
  
CITY           SKY/WX    TMP DP  RH WIND       PRES   REMARKS
SHELTON        PTSUNNY   53  47  79 W3        30.07S                  
OLYMPIA        CLOUDY    52  47  83 S3        30.09S                  
CHEHALIS       CLOUDY    46  46 100 W5        30.10F                  
KELSO          MOSUNNY   49  45  86 CALM      30.11F                  
VANCOUVER      SUNNY     53  47  79 CALM      30.10S                  
SCAPPOOSE, OR  MOSUNNY   51  47  86 CALM      30.10S                  
PORTLAND, OR   MOSUNNY   54  47  77 CALM      30.11R                  
$$
 
WAZ021-516-517-241500-
WASHINGTON COAST
  
CITY           SKY/WX    TMP DP  RH WIND       PRES   REMARKS
FORKS          CLOUDY    52  50  93 CALM      30.10F                  
HOQUIAM        SUNNY     52  52 100 NW8       30.10S                  
ASTORIA, OR    CLOUDY    55  51  86 NW5       30.09F                  
$$
 
WAZ019-023-024-040-567>569-241500-
CASCADE MOUNTAINS AND COLUMBIA GORGE
  
CITY           SKY/WX    TMP DP  RH WIND       PRES   REMARKS
STAMPEDE PASS  FOG       40  38  93 VRB6      30.04S VSB 1/4          
TROUTDALE, OR  SUNNY     53  47  79 CALM      30.11R                  
HOOD RIVER, OR SUNNY     54  45  71 W10G17    30.05S                  
THE DALLES, OR SUNNY     56  45  66 NW13      30.03S                  
$$

WAZ026-027-041>044-520-521-241500-
EAST SLOPES
  
CITY           SKY/WX    TMP DP  RH WIND       PRES   REMARKS
OMAK           SUNNY     60  40  47 N6        29.94S                  
WENATCHEE      SUNNY     56  37  49 W10       29.97S                  
ELLENSBURG     SUNNY     54  41  61 NW17G23   29.98F                  
YAKIMA         SUNNY     55  38  52 W7        30.00S                  
SUNNYSIDE ARPT SUNNY     52  44  76 S3        30.00                   
YAKIMA TC      FAIR      55  38  51 W3        29.98F                  
$$

WAZ028-034-035-241500-
COLUMBIA BASIN
  
CITY           SKY/WX    TMP DP  RH WIND       PRES   REMARKS
EPHRATA        SUNNY     60  36  40 W7        29.94S                  
MOSES LAKE     SUNNY     59  40  49 W10       29.95S                  
PASCO          SUNNY     60  44  55 S7        29.99S                  
RICHLAND ARPT  SUNNY     59  41  52 SW7       29.99                   
HERMISTON, OR  SUNNY     58  45  62 SW8       30.00S                  
$$

WAZ036>038-241500-
NORTHEAST WASHINGTON
  
CITY           SKY/WX    TMP DP  RH WIND       PRES   REMARKS
SPOKANE GEIGER MOSUNNY   50  40  68 S8        29.96R                  
SPOKANE FELTS  MOSUNNY   53  41  63 SW7       29.98R                  
FAIRCHILD AFB  SUNNY     49  43  80 S9        29.95R                  
COEURDALENE,ID SUNNY     53  43  68 S12       29.98R                  
DEER PARK      SUNNY     50  41  71 S9        29.96S                  
$$

WAZ029>033-241500-
SOUTHEAST WASHINGTON
  
CITY           SKY/WX    TMP DP  RH WIND       PRES   REMARKS
PULLMAN        SUNNY     54  42  64 W12       30.00S                  
LEWISTON, ID   PTSUNNY   58  43  57 N3        29.98R                  
WALLA WALLA    PTSUNNY   56  43  61 S15       30.01S                  
PENDLETON, OR  SUNNY     53  39  59 CALM      30.02R                  
$$